Weather reports worldwide

Advertisment
Jativa, Spain (8290): temperature & dewpoint: 14.01.2021 15:00:00 - 20.01.2021 15:00:00 (CET)Jativa, Spain (8290): wind speed & gusts: 14.01.2021 15:00:00 - 20.01.2021 15:00:00 (CET)Jativa, Spain (8290): wind direction: 14.01.2021 15:00:00 - 20.01.2021 15:00:00 (CET)Jativa, Spain (8290): reduced air pressure: 14.01.2021 15:00:00 - 20.01.2021 15:00:00 (CET)Jativa, Spain (8290): visibility: 14.01.2021 15:00:00 - 20.01.2021 15:00:00 (CET)Jativa, Spain (8290): sunshine duration: 14.01.2021 15:00:00 - 20.01.2021 15:00:00 (CET)Jativa, Spain (8290): precipitation: 14.01.2021 15:00:00 - 20.01.2021 15:00:00 (CET)
Date & Time tt [°C] td [°C] ff [km/h] ff [kn] fx [km/h] fx [kn] dd ppp [hPa] vv [km] sd [min] rr [mm]
20.01.2021 15:00:00 - - - - - - - - - - -
20.01.2021 14:00:00 12,2 3,4 3 1 15 8 SSW 1013,9 14 0 0,0
20.01.2021 13:00:00 11,9 3,9 5 3 14 7 S 1015,6 16 13 -
20.01.2021 12:00:00 11,3 5,5 2 1 8 4 ENE 1016,2 11 41 0,0
20.01.2021 11:00:00 7,7 4,1 5 3 10 5 E 1016,6 12 43 0,0
20.01.2021 10:00:00 4,1 2,1 5 3 10 5 W 1016,7 12 18 0,0
20.01.2021 09:00:00 2,7 0,9 3 1 9 5 W 1016,8 12 3 0,0
20.01.2021 08:00:00 2,1 0,4 0 0 10 5 N 1017,1 14 0 0,0
20.01.2021 07:00:00 2,1 0,6 1 1 13 7 WSW 1017,1 14 0 -
20.01.2021 06:00:00 2,0 0,2 3 2 6 4 E 1017,0 12 0 0,0
20.01.2021 05:00:00 3,2 0,9 4 2 13 7 E 1017,9 14 0 0,0
20.01.2021 04:00:00 3,5 1,3 3 1 11 6 SW 1018,6 20 0 0,0
20.01.2021 03:00:00 4,0 1,7 5 3 10 5 SE 1018,9 14 0 0,0
20.01.2021 02:00:00 5,4 2,5 0 0 14 7 N 1019,4 17 0 0,0
20.01.2021 01:00:00 6,7 2,7 6 3 19 11 W 1020,2 16 0 -
20.01.2021 00:00:00 7,0 3,2 4 2 18 10 WSW 1020,6 16 0 0,0
19.01.2021 23:00:00 8,2 3,9 9 5 22 12 W 1021,0 17 0 0,0
19.01.2021 22:00:00 6,6 3,6 8 4 15 8 W 1021,5 18 0 0,0
19.01.2021 21:00:00 7,7 4,5 8 4 13 7 WSW 1021,6 14 0 0,0
19.01.2021 20:00:00 10,3 5,6 6 3 11 6 SE 1022,0 17 0 0,0
19.01.2021 19:00:00 12,1 4,8 4 2 8 4 NE 1021,1 17 0 -
19.01.2021 18:00:00 15,4 4,8 6 3 10 5 N 1020,9 20 15 0,0
19.01.2021 17:00:00 17,8 2,9 8 4 12 6 NNE 1021,1 20 60 0,0
19.01.2021 16:00:00 18,5 3,9 6 3 14 7 NE 1021,2 20 60 0,0
19.01.2021 15:00:00 18,3 4,8 4 2 8 4 ENE 1021,8 20 60 0,0
19.01.2021 14:00:00 16,1 4,5 4 2 18 10 ENE 1023,2 20 60 0,0
19.01.2021 13:00:00 14,0 4,3 3 2 8 5 ENE 1024,7 20 60 -
19.01.2021 12:00:00 11,7 3,9 1 1 8 4 E 1026,0 20 60 0,0
19.01.2021 11:00:00 7,9 3,4 2 1 5 3 E 1026,5 14 60 0,0
19.01.2021 10:00:00 4,2 1,9 1 1 4 2 SE 1026,5 10 59 0,0
19.01.2021 09:00:00 0,7 -1,0 1 1 5 3 NNE 1026,7 11 4 0,0
19.01.2021 08:00:00 1,0 -0,7 1 1 6 4 SE 1026,9 19 0 0,0
19.01.2021 07:00:00 1,7 0,0 2 1 9 5 W 1026,7 20 0 -
19.01.2021 06:00:00 1,9 0,2 3 2 8 4 SSW 1026,8 20 0 0,0
19.01.2021 05:00:00 2,5 0,4 2 1 9 5 WSW 1027,0 20 0 0,0
19.01.2021 04:00:00 3,2 1,3 3 2 12 7 SW 1027,6 20 0 0,0
19.01.2021 03:00:00 3,3 1,3 7 4 12 7 W 1027,8 16 0 0,0
19.01.2021 02:00:00 4,3 2,1 8 5 12 6 WSW 1027,9 17 0 0,0
19.01.2021 01:00:00 4,6 2,1 6 3 11 6 W 1028,2 16 0 -
19.01.2021 00:00:00 6,4 3,0 6 4 14 8 SW 1028,2 20 0 0,0
18.01.2021 23:00:00 6,3 3,0 7 4 18 10 W 1028,0 20 0 0,0
18.01.2021 22:00:00 7,2 4,1 9 5 14 8 WSW 1027,7 20 0 0,0
18.01.2021 21:00:00 8,2 5,0 7 4 12 6 WSW 1027,6 19 0 0,0
18.01.2021 20:00:00 9,7 5,3 8 4 12 7 W 1026,9 20 0 0,0
18.01.2021 19:00:00 11,5 5,8 5 3 11 6 W 1026,2 20 0 -
18.01.2021 18:00:00 14,3 6,1 6 4 12 6 N 1025,5 20 12 0,0
18.01.2021 17:00:00 16,9 3,9 7 4 13 7 NE 1025,1 20 60 0,0
18.01.2021 16:00:00 17,4 3,9 4 2 11 6 NNE 1025,2 20 60 0,0
18.01.2021 15:00:00 17,9 3,4 4 2 14 8 ENE 1025,8 20 60 0,0
18.01.2021 14:00:00 16,7 3,8 3 2 12 7 NW 1026,8 20 60 0,0
18.01.2021 13:00:00 15,1 3,8 4 2 8 5 E 1027,9 20 60 -
18.01.2021 12:00:00 13,0 1,1 4 2 10 6 E 1028,9 20 60 0,0
18.01.2021 11:00:00 9,7 0,0 6 3 16 9 SSW 1029,3 20 60 0,0
18.01.2021 10:00:00 6,6 -0,7 11 6 19 11 SW 1029,0 20 58 0,0
18.01.2021 09:00:00 4,4 -0,7 12 6 21 11 SW 1028,7 20 5 0,0
18.01.2021 08:00:00 3,5 -1,0 10 5 18 10 WSW 1028,3 20 0 0,0
18.01.2021 07:00:00 1,9 -1,4 5 3 10 6 WSW 1027,9 20 0 -
18.01.2021 06:00:00 3,1 -1,2 8 4 13 7 WSW 1027,3 20 0 0,0
18.01.2021 05:00:00 2,6 -1,7 3 2 9 5 SSE 1027,3 20 0 0,0
18.01.2021 04:00:00 3,2 -2,2 3 2 11 6 WSW 1027,2 20 0 0,0
18.01.2021 03:00:00 4,6 -2,7 5 3 16 8 W 1027,0 20 0 0,0
18.01.2021 02:00:00 5,0 -3,6 5 3 14 8 W 1027,0 20 0 0,0
18.01.2021 01:00:00 6,7 -3,9 6 3 23 12 WSW 1026,7 20 0 -
18.01.2021 00:00:00 9,2 -6,7 11 6 27 15 SW 1026,4 20 0 0,0
17.01.2021 23:00:00 9,1 -6,7 11 6 21 12 WSW 1026,4 20 0 0,0
17.01.2021 22:00:00 7,6 -3,0 2 1 17 9 W 1026,4 20 0 0,0
17.01.2021 21:00:00 11,3 -6,0 10 6 17 9 SW 1025,9 20 0 0,0
17.01.2021 20:00:00 10,7 -2,5 7 4 16 9 WSW 1025,6 20 0 0,0
17.01.2021 19:00:00 13,2 -4,2 6 3 11 6 WNW 1025,0 20 0 -
17.01.2021 18:00:00 17,1 -4,8 9 5 18 10 W 1023,9 20 14 0,0
17.01.2021 17:00:00 19,8 -6,7 12 6 24 13 WNW 1023,6 20 60 0,0
17.01.2021 16:00:00 21,3 -5,7 10 6 23 12 WNW 1023,5 20 60 0,0
17.01.2021 15:00:00 21,9 -3,6 9 5 19 11 W 1023,6 20 60 0,0
17.01.2021 14:00:00 20,4 -1,0 5 3 16 8 WSW 1024,8 20 60 0,0
17.01.2021 13:00:00 17,9 -1,0 4 2 16 9 SSE 1026,3 20 60 -
17.01.2021 12:00:00 15,3 -4,2 10 5 21 11 SW 1027,2 20 60 0,0
17.01.2021 11:00:00 11,9 -5,1 10 6 22 12 SW 1027,8 20 60 0,0
17.01.2021 10:00:00 7,9 -5,1 11 6 19 10 WSW 1027,6 20 58 0,0
17.01.2021 09:00:00 3,9 -4,5 8 4 23 12 W 1027,6 20 4 0,0
17.01.2021 08:00:00 5,2 -5,1 11 6 21 11 SW 1027,2 20 0 0,0
17.01.2021 07:00:00 5,9 -4,5 12 7 22 12 WSW 1027,1 20 0 -
17.01.2021 06:00:00 3,8 -3,9 9 5 16 9 WSW 1027,3 20 0 0,0
17.01.2021 05:00:00 1,6 -3,6 5 3 10 5 W 1027,6 20 0 0,0
17.01.2021 04:00:00 2,7 -3,6 3 1 11 6 SW 1028,0 20 0 0,0
17.01.2021 03:00:00 3,9 -4,2 7 4 16 8 W 1028,1 20 0 0,0
17.01.2021 02:00:00 4,5 -4,5 9 5 15 8 WSW 1028,6 20 0 0,0
17.01.2021 01:00:00 5,5 -4,8 8 5 19 10 WSW 1028,8 20 0 -
17.01.2021 00:00:00 6,7 -4,5 9 5 23 12 WSW 1028,7 20 0 0,0
16.01.2021 23:00:00 5,6 -3,6 8 4 15 8 W 1028,4 20 0 0,0
16.01.2021 22:00:00 6,7 -2,7 6 4 27 14 W 1028,1 20 0 0,0
16.01.2021 21:00:00 9,4 -3,3 13 7 23 13 WSW 1027,5 20 0 0,0
16.01.2021 20:00:00 8,7 -1,4 9 5 14 8 WSW 1027,6 20 0 0,0
16.01.2021 19:00:00 11,8 -3,3 5 3 11 6 W 1026,8 20 0 -
16.01.2021 18:00:00 15,3 -2,2 9 5 16 9 WSW 1026,0 20 9 0,0
16.01.2021 17:00:00 18,2 -4,5 6 3 16 9 SW 1025,5 20 60 0,0
16.01.2021 16:00:00 17,7 -4,5 5 3 12 7 SSW 1025,3 20 60 0,0
16.01.2021 15:00:00 16,1 -3,6 5 3 12 7 E 1025,8 20 60 0,0
16.01.2021 14:00:00 15,3 -3,6 5 3 12 6 SE 1026,4 20 60 0,0
16.01.2021 13:00:00 13,5 -3,0 3 2 11 6 ENE 1027,6 20 60 -
16.01.2021 12:00:00 11,6 -2,7 6 3 11 6 SE 1028,0 19 60 0,0
16.01.2021 11:00:00 8,5 -3,3 9 5 16 9 SW 1028,1 20 60 0,0
16.01.2021 10:00:00 4,7 -3,0 6 3 21 11 SW 1027,4 20 59 0,0
16.01.2021 09:00:00 -0,1 -3,6 8 5 15 8 W 1026,8 20 4 0,0
16.01.2021 08:00:00 0,2 -3,6 5 3 13 7 WSW 1026,1 20 0 0,0
16.01.2021 07:00:00 0,1 -3,3 2 1 6 4 WSW 1025,5 20 0 -
16.01.2021 06:00:00 0,1 -3,3 7 4 14 7 W 1024,9 20 0 0,0
16.01.2021 05:00:00 1,0 -2,5 5 3 10 6 SSW 1024,4 20 0 0,0
16.01.2021 04:00:00 1,5 -2,5 4 2 9 5 WSW 1024,0 20 0 0,0
16.01.2021 03:00:00 1,5 -2,2 0 0 8 5 N 1023,7 20 0 0,0
16.01.2021 02:00:00 2,1 -2,0 3 2 13 7 SSW 1023,5 20 0 0,0
16.01.2021 01:00:00 2,7 -1,7 3 1 12 7 SW 1023,8 20 0 -
16.01.2021 00:00:00 4,8 -1,4 6 4 13 7 SW 1023,5 20 0 0,0
15.01.2021 23:00:00 4,5 -1,2 5 3 13 7 W 1023,4 20 0 0,0
15.01.2021 22:00:00 7,6 -2,2 8 5 20 11 WSW 1023,3 20 0 0,0
15.01.2021 21:00:00 8,8 -2,2 8 5 21 11 SW 1023,3 20 0 0,0
15.01.2021 20:00:00 10,5 -2,5 3 2 19 10 WSW 1023,5 20 0 0,0
15.01.2021 19:00:00 12,7 -3,6 13 7 18 10 WSW 1022,8 20 0 -
15.01.2021 18:00:00 13,9 -2,5 10 6 31 17 W 1022,2 20 7 0,0
15.01.2021 17:00:00 15,6 -2,7 16 9 34 19 WNW 1022,0 20 60 0,0
15.01.2021 16:00:00 16,8 -1,0 14 8 23 12 WNW 1021,9 20 55 0,0
15.01.2021 15:00:00 17,3 0,0 11 6 22 12 NNW 1022,4 20 60 0,0
15.01.2021 14:00:00 16,4 0,0 9 5 15 8 NNW 1023,0 20 60 0,0
15.01.2021 13:00:00 15,1 -0,7 2 1 14 8 NNW 1024,0 20 60 -
15.01.2021 12:00:00 13,1 -0,3 7 4 16 9 S 1025,2 20 60 0,0
15.01.2021 11:00:00 9,6 0,2 5 3 12 6 SW 1025,4 20 60 0,0
15.01.2021 10:00:00 5,6 0,9 4 2 13 7 W 1025,2 20 59 0,0
15.01.2021 09:00:00 2,0 -0,5 5 3 11 6 SW 1024,8 20 4 0,0
15.01.2021 08:00:00 0,9 -1,4 5 3 10 5 W 1024,6 20 0 0,0
15.01.2021 07:00:00 0,7 -1,4 2 1 12 6 WSW 1024,5 20 0 -
15.01.2021 06:00:00 1,5 -1,2 4 2 8 5 WSW 1024,3 20 0 0,0
15.01.2021 05:00:00 1,3 -1,7 6 3 11 6 W 1024,2 20 0 0,0
15.01.2021 04:00:00 1,3 -2,0 3 1 6 3 W 1024,4 20 0 0,0
15.01.2021 03:00:00 1,6 -2,0 2 1 11 6 SSE 1024,3 20 0 0,0
15.01.2021 02:00:00 2,9 -2,5 7 4 13 7 WSW 1024,5 20 0 0,0
15.01.2021 01:00:00 2,2 -2,2 5 3 9 5 W 1024,8 20 0 -
15.01.2021 00:00:00 2,6 -1,7 3 2 16 8 NNE 1024,6 20 0 0,0
14.01.2021 23:00:00 3,1 -1,2 3 2 11 6 SW 1024,5 20 0 0,0
14.01.2021 22:00:00 4,0 -1,2 5 3 13 7 W 1024,0 20 0 0,0
14.01.2021 21:00:00 7,0 -1,4 9 5 18 10 WSW 1023,5 20 0 0,0
14.01.2021 20:00:00 6,7 0,6 6 4 15 8 W 1022,9 20 0 0,0
14.01.2021 19:00:00 8,6 0,0 8 5 11 6 WSW 1022,6 20 0 -
14.01.2021 18:00:00 12,4 -3,0 4 2 8 4 NNW 1022,3 20 0 0,0
14.01.2021 17:00:00 15,6 -2,0 6 3 15 8 NW 1022,2 20 60 0,0
14.01.2021 16:00:00 16,3 -2,7 6 3 13 7 N 1021,8 20 60 0,0
14.01.2021 15:00:00 16,4 -2,2 5 3 10 5 NNW 1021,9 20 60 0,0

tt = temperature
td = dewpoint
ff = wind speed
fx = gusts
dd = wind direction
ppp = reduced air pressure
vv = visibility
sd = sunshine duration
rr = precipitation

Next stations